NOAA 20 (JPSS-1)

Last updated on Mon Nov 03 2025 00:02:25 GMT+0000 (Coordinated Universal Time)

1 43013U 17073A 25306.39039804 .00000106 00000+0 71290-4 0 9990 2 43013 98.7531 243.1416 0001062 144.5261 215.5985 14.19509023412296
UTC large
Height (km)
Speed (km/s)
/
Latitude / Longitude
Inclination (degrees)
Orbital Period (minutes)
Azimuth
Elevation
Range (km)
Doppler Factor

Next 0 passes for location: London (51.5072 / 0.1276)

Sorry there are no passes over London.